Voltar ao catálogo

STARLINK-31257

AtivoComunicaçõesVLEO
NORAD 59079·PAYLOAD·🇺🇸 United States

Lançado Feb 29, 2024 de Cape Canaveral Space Force Station

Loading…

Próximas Passagens (próximas 24 horas)

TLE

AtualizadoSource: CelesTrak SupGP

Época: Sep 14, 2026, 20:44 UTC

1 59079C 24041F   26257.86437500 -.00021716  00000+0 -78655-3 0  2575
2 59079  43.0017 322.2055 0001504 267.4458 140.9014 15.27589228    11

Acompanhe STARLINK-31257 em tempo real com AllMySat

Download on the App Store